Airfield :
LOGIN :

Register | Disclaimer

   EN    FR    IT 

 










Legend :    VFR   Marginal VFR   IFR   Intensive IFR   Very Intensive IFR
Visi :
Ceiling :
>= 8 km
>= 3000ft
5 to 8 km
1000 to 3000 ft
1500m to 5 km
500 to 1000 ft
800 to 1500m
200 to 500 ft
< 800m
< 200 ft
Symbols :   Thunderstorms  Fog  Heavy snow  Heavy precipitations  Wind > 20 kt
SIGMETs :     Misc.  Thunderstorms  Icing  Turbulence  Mountain Waves  Volcanic Ashes







- Airport Elevation : 1504 ft
- IATA code : PNA


LEPP - Noain Pamplona

CURRENT METAR :
  • 181530Z VRB01KT CAVOK 10/06 Q1022

EXPIRED METARs :
  • 181500Z VRB01KT CAVOK 09/05 Q1022
  • 181430Z VRB01KT CAVOK 08/05 Q1022
  • 181400Z VRB01KT 9000 FEW003 08/05 Q1023
  • 181330Z 00000KT 9000 FEW003 07/05 Q1023
  • 181300Z 00000KT 8000 FEW003 07/05 Q1024

TAF TAF LEPP
Valid from the 18 at 15:00 until the 19 at 15:00 UTC


181400Z 1815/1915 VRB04KT 9999 FEW030 TX11/1815Z TN05/1905Z
PROB40
TEMPO 1821/1912 BKN014
PROB40
TEMPO 1909/1912 3000 -RA BKN010
No reported NOTAMs for that airfield.



MET'MAP, your aeronautical weather chart ! - Copyright ORBIFLY December 2007 - Disclaimer

ORBIFLY MET'MAP TEAM :

Programming & Development : Alexandra Zaïnal
Concept & Development : Baudouin d'Aumeries
Co-Development & Prog : Marc-Olivier Méhu
Technical & hardware support : Manuel Goepfert

Contact : metmap@orbifly.com




SOURCES & CREDITS :

   NOAA